Location: Palmerston North
(40.3500°S, 175.6170°E)
Time: 18:16:54
(UTC+13:00)

CZ-4B DEB - Pass Details

Date: 24 January 2019
Orbit: 456 x 459 km, 97.4° (Epoch: 16 February)

Event Time Altitude Azimuth Distance (km) Brightness Sun altitude
Rises 22:50:39 0° 168° (SSE) 2,522 8.7 -19.9°
Reaches altitude 10° 22:52:43 10° 166° (SSE) 1,636 7.7 -20.1°
Maximum altitude 22:56:14 81° 79° (ENE) 477 4.3 -20.6°
Enters shadow 22:56:15 81° 75° (ENE) 477 4.3 -20.6°
